Regional Weather Roundup
Issued by NWS Wakefield, VA

Home | Current Version | Previous Version | Graphics & Text | Print | Product List | Glossary On
Versions: 1 2 3 4 5 6 7 8 9 10 11 12 13 14 15 16 17 18 19 20 21 22 23 24 25 26 27 28 29 30 31 32 33 34 35 36 37 38 39 40 41 42 43 44 45 46 47 48 49 50
000
ASUS41 KAKQ 010210
RWRAKQ

REGIONAL WEATHER ROUNDUP
NATIONAL WEATHER SERVICE WAKEFIELD VA
1000 PM EDT SUN AUG 31 2014

Note: "fair" indicates few or no clouds below 12,000 feet with no
significant weather and/or obstructions to visibility. * = Denotes
station may not report precipitation (e.g., rain,snow,etc.),
thunder or fog.

VAZ042-051-052>054-056-010300-
NORTHERN VIRGINIA

CITY           SKY/WX    TMP DP  RH WIND       PRES   REMARKS
WASH NATIONAL  TSTM      79  72  78 W13G18    30.05R
DULLES         CLOUDY    72  71  97 NW5       30.05R
FORT BELVOIR   LGT RAIN  74  72  93 VRB3      30.05R FOG
QUANTICO       CLOUDY    74  69  85 CALM      30.05R THUNDER
FREDERICKSBRG* LGT RAIN  78  73  82 SW9       30.04R
STAFFORD*      CLOUDY    72  72 100 CALM      30.09F THUNDER
WARRENTON      CLOUDY    75  74  99 SE3       30.04F
CULPEPER*      MOCLDY   N/A N/A N/A CALM      30.05S
MANASSAS*      NOT AVBL
LEESBURG*      LGT RAIN  73  73 100 W5        30.06S
WINCHESTER     MOCLDY    73  72  94 CALM      30.05S
$$

VAZ048-049-060>072-079>083-010300-
CENTRAL AND SOUTH CENTRAL VIRGINIA...AND NORTH CENTRAL NORTH CAROLINA

CITY           SKY/WX    TMP DP  RH WIND       PRES   REMARKS
RICHMOND       MOCLDY    80  71  74 S5        30.05R
CHESTERFIELD*  PTCLDY    79  64  61 S5        30.07S
PETERSBURG*    PTCLDY    78  71  78 S3        30.06S
HANOVER        MOCLDY    83  71  67 S6        30.06S
TAPPAHANNOCK*  MOCLDY    80  68  67 S3        30.05S
CHARLOTTSVILLE MOCLDY    76  70  82 CALM      30.06R
ORANGE*        MOCLDY    72  70  94 N3        30.06S
LOUISA*        CLOUDY    79  72  78 CALM      30.05S
FARMVILLE*     MOCLDY    77  75  94 CALM      30.04S
SOUTH HILL*    PTCLDY    79  75  89 SE5       30.13R
ROANOKE RAPIDS PTCLDY    79  72  78 S6        30.08R
RALEIGH        MOCLDY    81  70  69 S5        30.09R
$$

VAZ088>098-010300-
SOUTHEAST VIRGINIA

CITY           SKY/WX    TMP DP  RH WIND       PRES   REMARKS
NORFOLK        CLEAR     82  71  69 S10       30.07S
VIRGINIA BEACH PTCLDY    80  73  79 S8        30.07S
NORFOLK NAVAL  PTCLDY    84  72  67 S10G17    30.09R
WEST POINT*    CLEAR     83  70  65 S6        30.06F
NEWPORT NEWS   CLEAR     86  71  60 S10       30.07R
LANGLEY AFB    CLEAR     82  73  72 SW8       30.06S
FORT EUSTIS    CLEAR     81  72  72 S6        30.05R
WILLIAMSBURG*  CLEAR     82  75  78 S5        30.07S
FRANKLIN*      CLEAR     79  72  78 S6        30.08R
WAKEFIELD      CLEAR     80  72  76 S5        30.07R
$$

VAZ020-022-025-037-045-010300-
WESTERN AND SOUTHWEST VIRGINIA

CITY           SKY/WX    TMP DP  RH WIND       PRES   REMARKS
STAUNTON*      MOCLDY    74  69  83 S5        30.11S
HOT SPRINGS VA MOCLDY    66  64  93 W15       30.24S
LYNCHBURG      MOCLDY    73  71  93 CALM      30.10S
DANVILLE       MOCLDY    76  70  82 CALM      30.09R
MARTINSVILLE   MOCLDY    72  72  99 CALM      30.13R
ROANOKE        MOCLDY    79  69  71 CALM      30.11F
BLACKSBURG     MOCLDY    75  72  88 CALM      30.17F
DUBLIN*        MOCLDY    75  70  84 SW3       30.17F
MARION*        MOCLDY   N/A N/A N/A W5        30.22S
HILLSVILLE*    PTCLDY    72  65  81 S3        30.20S
RICHLANDS*     CLOUDY    75  68  79 SW8       30.20R
WISE*          CLOUDY    70  68  94 S14       30.19S
ABINGDON*      RAIN      74  71  89 CALM      30.18S
$$

MDZ021>025-VAZ099-100-010300-
SOUTHERN MARYLAND AND THE DELMARVA PENINSULA

CITY           SKY/WX    TMP DP  RH WIND       PRES   REMARKS
PATUXENT RIVER PTCLDY    80  73  79 S6        30.03R
BAY BRIDGE APT RAIN      77  73  88 CALM      30.03S
LEONARDTOWN    PTCLDY    81  68  65 S5        30.04S
DOVER          LGT RAIN  75  74  94 W2        30.03R
GEORGETOWN     MOCLDY    78  72  81 S15       30.04S
EASTON         NOT AVBL
CAMBRIDGE      MOCLDY    81  73  78 S7        30.03R
SALISBURY      PTCLDY    79  72  79 S7        30.05S
OCEAN CITY     PTCLDY    79  75  87 SW15G22   30.06S
WALLOPS ISLAND CLEAR     79  75  87 SW14      30.06S
ACCOMACK*      NOT AVBL
$$

NCZ012>017-030>032-010300-
EASTERN NORTH CAROLINA

CITY           SKY/WX    TMP DP  RH WIND       PRES   REMARKS
ELIZABETH CITY CLEAR     79  74  84 S8        30.10R
AHOSKIE*       CLEAR     76  72  88 S5        30.09S
EDENTON*       CLEAR     80  73  79 S9        30.10S
CURRITUCK*     CLEAR     80  73  78 CALM      30.10S
KILL DEVIL HLS CLEAR     80  75  85 S7        30.10S
MANTEO         CLEAR     80  75  86 S10       30.11S
CAPE HATTERAS  PTCLDY    80  77  90 SW10      30.13R
GOLDSBORO      CLEAR     80  79  96 S6        30.09R
WASHINGTON     CLEAR     79  73  82 S5        30.11S
GREENVILLE     CLEAR     81  73  78 S10       30.11S
NEW BERN       CLEAR     78  73  84 S5        30.13R
WILMINGTON     CLEAR     79  75  87 S6        30.12R
$$

VAZ048-010300-
ELSEWHERE

CITY           SKY/WX    TMP DP  RH WIND       PRES   REMARKS
HARRISBURG PA  LGT RAIN  74  70  87 NW5       30.03R
BALTIMORE      LGT RAIN  74  72  93 CALM      30.03R
ANNAPOLIS      LGT RAIN  77  71  82 SE3       30.01F
ANDREWS AFB    LGT RAIN  75  73  94 NW15      30.04R FOG
WILMINGTON DE  CLOUDY    75  72  90 SE6       30.04S
PHILADELPHIA   LGT RAIN  75  73  93 S10       30.04R
WILDWOOD NJ*   CLOUDY    77  70  78 S10       30.05S
ATLANTIC CITY  LGT RAIN  78  73  84 MISG      30.05R
HENDERSON NC   CLEAR     78  69  73 S3        30.09S
GREENSBORO     PTCLDY    80  69  69 S6        30.10R
ROCKY MOUNT    CLEAR     80  73  79 S7        30.09R
FAYETTEVILLE   CLEAR     82  73  74 S9        30.10R
CHARLOTTE      PTCLDY    78  69  73 S5        30.12R
$$

VAZ100-010300-
MARINE

STATION/POSITION TIME  TEMP    WIND        PRES    WAVE   SWELL
                       AIR SEA DIR/SP/G            HT/PER HT/PER
                 (UTC) (F)     (DEG/KT/KT) (MB)    (FT/S) (FT/S)
44066 TX TWR #4  0200   75 73  210/ 17/ 21 1017.3S
CAPE MAY NJ      0200   78 80  180/  7/ 11 1016.6S
LEWES DE         0200   79 76  200/  6/ 10 1016.7F
15NM E FENWICK I 0200   77 74              1017.4F   4/ 4
OCEAN-CITY-INLET 0200   78 79  220/ 16/ 18 1017.5R
WACHAPREAGUE VA  0200   80 84  210/ 10/ 12 1018.0R
THOMAS POINT MD  0200   77 79  140/  4/  4 1017.4F
GOOSES REEF MD   0200   81      10/  4/ 10 1017.1F
COVE POINT MD    0200   81     200/ 11/ 14 1016.5R
SOLOMONS ISLAND  0200      80                N/A
BISHOPS HEAD MD  0200   80 80  180/ 14/ 17 1016.7R
PINEY POINT MD   0200          210/  6/  7   N/A
POTOMAC MD       0200   80     190/  8/ 10 1016.5R
CAMBRIDGE MD     0200   80 78  180/  6/ 10 1016.3S
LEWISETTA VA     0200   81 80  210/  7/  8 1016.8R
RAPPAHANNOCK LGT 0200          170/ 12/ 13 1018.2S
STINGRAY PT      0200   82     200/  8/ 10   N/A
YORK RVR RNG VA  0200   82     220/ 11/ 11 1017.4S
YORKTOWN VA      0200   83 80  200/  6/  8 1017.7R
JAMESTOWN VA     0200   79     200/  6/  8   N/A
DOMINION TERM VA 0200   82     200/ 10/ 12 1018.3R
KIPTOPEKE VA     0200      84  180/ 12/ 14   N/A
CHES BAY BRIDGE  0200   83 80  180/ 11/ 14 1017.9R
CAPE HENRY VA    0200   80     180/  8/ 12 1017.2R
CHESAPEAKE LGHT  0100   79     180/ 21/ 22 1018.6R
WILLOUBY STN VA  0200   83     210/ 15/ 17 1017.0R
S CRANEY ISL VA  0200          180/  9/ 12 1018.0S
CAPE HENRY BUOY  0200      79                N/A     3/ 4
1ST LANDING BUOY 0200   82     190/ 10/ 12 1017.9R
CAPE CHARLES BUO 0200      80                N/A     3/ 4   2/10
OFFSHORE WE BUOY 0200      77                N/A     3/ 4   2/ 8
64NM E OF VA BCH 0200   79 78  190/ 14/ 16 1019.0S   3/ 9   2/ 9
DUCK PIER NC     0200   81 76  180/ 13/ 15 1018.5F
44056 DUCK FRF   0200                        N/A     2/ 9
OREGON INLET NC  0200   81 82  190/ 14/ 15 1019.9S
HATTERAS NC      0200   82 84  200/  5/ 12 1020.8R
DIAMOND SHLS NC  0200   79     190/ 19/ 21 1020.0R   4/ 9   3/ 9
CAPE LOOKOUT NC  0100   82     200/  8/  9 1019.8R
$$


USA.gov is the U.S. government's official web portal to all federal, state and local government web resources and services.